Location: Niles Junction
(37.5763°N, 121.9714°W)
Time: 04:31:24
(UTC+00:00)

Cosmos 1992 Rocket - Pass Details

Date: 29 October 2020
Orbit: 759 x 765 km, 74.0° (Epoch: 23 November)

Event Time Altitude Azimuth Distance (km) Brightness Sun altitude
Exits shadow 12:59:09 - 337° (NNW) 2,507 6.4 -18.6°
Reaches altitude 10° 12:59:42 10° 336° (NNW) 2,298 6.2 -18.5°
Maximum altitude 13:04:51 65° 255° (WSW) 834 3.9 -17.5°
Drops below altitude 10° 13:09:59 10° 174° (S) 2,287 6.6 -16.5°
Sets 13:12:21 0° 172° (S) 3,210 7.4 -16.0°
